�N����,����,�~����,�C��,���x,�C��,����,���ϕ���,�ő�u�ԕ���,�ő厞����,���˗�,�I�_���x,�n�����x,�ő啗���N��,DTYPE
"21/01/04","00:10",0.0,3.0,85.3,1021.5,313.5,3.0,4.5,327.4,0.00,0.8,5.3,"00:05:44",1
"21/01/04","00:20",0.0,3.0,84.4,1021.5,315.4,2.6,3.7,312.9,0.00,0.7,5.4,"00:12:08",1
"21/01/04","00:30",0.0,2.9,83.6,1021.8,329.2,2.5,4.0,337.1,0.00,0.4,5.3,"00:22:48",1
"21/01/04","00:40",0.0,2.8,83.1,1022.3,309.9,2.0,3.4,313.3,0.00,0.3,5.3,"00:31:20",1
"21/01/04","00:50",0.0,2.7,83.0,1022.0,323.3,2.2,3.4,317.5,0.00,0.1,5.4,"00:40:02",1
"21/01/04","01:00",0.0,2.9,82.7,1021.8,326.6,3.1,4.5,319.0,0.00,0.3,5.2,"00:57:36",1
"21/01/04","01:10",0.0,2.9,82.3,1022.0,318.4,2.8,4.5,305.2,0.00,0.2,5.3,"01:02:08",1
"21/01/04","01:20",0.0,3.0,81.9,1021.8,326.3,2.2,3.3,320.5,0.00,0.3,5.2,"01:10:08",1
"21/01/04","01:30",0.0,2.9,81.6,1022.3,330.1,2.7,4.9,335.3,0.00,0.1,5.3,"01:22:00",1
"21/01/04","01:40",0.0,3.1,81.0,1022.0,320.1,2.2,3.3,329.1,0.00,0.2,5.2,"01:39:36",1
"21/01/04","01:50",0.0,3.0,80.6,1022.0,324.8,1.7,3.2,336.0,0.00,0.0,5.3,"01:46:32",1
"21/01/04","02:00",0.0,3.1,80.4,1022.3,331.0,1.8,3.2,341.4,0.00,0.1,5.4,"01:57:28",1
"21/01/04","02:10",0.0,3.1,80.4,1022.5,332.7,1.7,3.1,336.0,0.00,0.1,5.5,"02:04:00",1
"21/01/04","02:20",0.0,3.0,80.5,1022.5,326.5,1.7,2.4,328.5,0.00,0.0,5.3,"02:11:12",1
"21/01/04","02:30",0.0,3.0,80.8,1022.5,324.3,2.2,3.7,329.0,0.00,0.1,5.5,"02:28:56",1
"21/01/04","02:40",0.0,3.0,80.6,1022.7,325.1,2.0,3.7,327.5,0.00,0.0,5.4,"02:34:08",1
"21/01/04","02:50",0.0,2.9,80.3,1022.7,323.7,2.0,3.3,335.6,0.00,-0.1,5.3,"02:46:56",1
"21/01/04","03:00",0.0,2.8,80.0,1023.0,321.8,2.2,3.3,327.5,0.00,-0.3,5.2,"02:50:56",1
"21/01/04","03:10",0.0,2.8,79.9,1022.7,324.3,2.7,4.1,323.1,0.00,-0.3,5.5,"03:08:40",1
"21/01/04","03:20",0.0,2.8,79.8,1022.7,327.6,2.6,4.5,341.9,0.00,-0.3,5.6,"03:11:44",1
"21/01/04","03:30",0.0,2.8,79.8,1022.3,325.0,2.5,4.1,332.4,0.00,-0.3,5.3,"03:21:12",1
"21/01/04","03:40",0.0,2.7,79.6,1022.3,323.6,2.2,3.6,319.6,0.00,-0.4,5.3,"03:33:44",1
"21/01/04","03:50",0.0,2.7,79.5,1022.5,333.7,2.0,3.3,335.8,0.00,-0.4,5.6,"03:41:36",1
"21/01/04","04:00",0.0,2.7,79.2,1022.5,324.9,2.1,3.1,321.8,0.00,-0.5,5.1,"03:54:00",1
"21/01/04","04:10",0.0,2.6,79.3,1022.3,331.8,2.0,3.4,340.0,0.00,-0.6,5.2,"04:04:32",1
"21/01/04","04:20",0.0,2.6,79.5,1022.3,308.5,2.1,4.5,322.6,0.00,-0.5,5.3,"04:17:28",1
"21/01/04","04:30",0.0,2.4,80.1,1021.5,311.3,2.3,3.7,324.9,0.00,-0.6,5.2,"04:23:44",1
"21/01/04","04:40",0.0,2.4,80.9,1021.8,313.1,3.0,5.4,334.9,0.00,-0.5,5.2,"04:36:16",1
"21/01/04","04:50",0.0,2.5,81.1,1021.8,319.8,3.0,4.4,341.1,0.00,-0.4,5.3,"04:48:00",1
"21/01/04","05:00",0.0,2.6,80.7,1022.0,303.9,2.8,5.0,332.1,0.00,-0.3,5.2,"04:50:02",1
"21/01/04","05:10",0.0,2.7,79.8,1022.3,310.5,3.4,5.1,327.1,0.00,-0.4,5.2,"05:01:12",1
"21/01/04","05:20",0.0,2.5,79.3,1022.0,299.1,2.7,5.5,331.2,0.00,-0.7,5.1,"05:11:12",1
"21/01/04","05:30",0.0,2.5,79.5,1022.5,308.9,3.5,5.1,313.7,0.00,-0.6,5.2,"05:22:10",1
"21/01/04","05:40",0.0,2.2,79.8,1022.0,313.8,3.0,4.1,326.4,0.00,-0.9,5.3,"05:31:28",1
"21/01/04","05:50",0.0,2.1,80.6,1022.3,298.2,2.7,3.7,322.7,0.00,-0.8,4.9,"05:40:32",1
"21/01/04","06:00",0.0,1.8,81.7,1022.3,314.1,3.5,4.2,323.3,0.00,-1.0,5.0,"05:59:12",1
"21/01/04","06:10",0.0,1.7,82.8,1022.5,327.1,3.2,5.1,332.1,0.00,-0.9,5.1,"06:00:48",1
"21/01/04","06:20",0.0,1.7,83.7,1022.3,320.4,2.8,4.3,326.4,0.00,-0.7,5.0,"06:15:20",1
"21/01/04","06:30",0.0,1.8,84.3,1022.5,317.6,3.5,5.8,330.9,0.00,-0.5,4.9,"06:25:54",1
"21/01/04","06:40",0.0,1.9,84.7,1022.5,316.5,3.6,6.0,323.7,0.00,-0.4,4.9,"06:32:40",1
"21/01/04","06:50",0.0,1.8,84.9,1022.7,326.8,4.6,5.9,315.9,0.00,-0.4,4.9,"06:41:20",1
"21/01/04","07:00",0.0,1.8,85.1,1023.2,325.7,4.4,5.4,329.6,0.00,-0.4,4.9,"06:53:56",1
"21/01/04","07:10",0.0,1.8,85.2,1023.2,325.6,4.4,6.0,319.1,0.00,-0.4,4.9,"07:09:32",1
"21/01/04","07:20",0.0,1.8,85.2,1023.2,324.4,4.2,6.4,330.2,0.00,-0.4,4.7,"07:12:42",1
"21/01/04","07:30",0.0,1.8,85.3,1023.0,323.7,3.6,4.9,329.6,0.00,-0.4,4.7,"07:21:44",1
"21/01/04","07:40",0.0,1.5,85.4,1022.7,322.3,2.3,3.7,330.5,0.00,-0.6,4.9,"07:30:40",1
"21/01/04","07:50",0.0,1.0,85.7,1023.2,279.2,1.2,2.6,319.5,0.00,-1.1,4.5,"07:43:12",1
"21/01/04","08:00",0.0,0.9,86.2,1023.4,254.6,0.6,0.9,194.7,0.00,-1.1,4.8,"07:50:32",1
"21/01/04","08:10",0.0,0.8,86.5,1023.0,295.4,1.5,2.2,310.5,0.00,-1.2,4.8,"08:09:54",1
"21/01/04","08:20",0.0,1.0,87.0,1022.7,303.6,2.1,2.6,311.5,0.01,-0.9,4.8,"08:16:08",1
"21/01/04","08:30",0.0,1.4,87.4,1023.4,306.0,1.6,2.5,307.3,0.02,-0.4,4.7,"08:21:28",1
"21/01/04","08:40",0.0,2.1,87.7,1023.0,308.4,1.7,2.0,326.2,0.05,0.3,4.7,"08:34:10",1
"21/01/04","08:50",0.0,2.8,87.6,1023.7,266.5,0.8,1.2,270.6,0.08,1.0,4.9,"08:40:56",1
"21/01/04","09:00",0.0,3.3,87.2,1023.9,331.5,0.5,0.9,330.6,0.10,1.4,5.0,"08:53:36",1
"21/01/04","09:10",0.0,3.8,86.3,1024.4,186.0,0.7,1.7,102.4,0.13,1.8,5.2,"09:03:08",1
"21/01/04","09:20",0.0,4.3,84.7,1024.1,133.5,0.8,1.7,116.9,0.15,2.0,5.2,"09:14:24",1
"21/01/04","09:30",0.0,4.6,83.1,1024.6,104.7,0.8,1.9,108.6,0.19,2.0,5.3,"09:25:00",1
"21/01/04","09:40",0.0,5.1,79.7,1024.6,201.3,1.1,2.4,148.6,0.24,1.9,5.5,"09:39:20",1
"21/01/04","09:50",0.0,5.6,77.3,1025.1,189.5,1.0,1.9,120.3,0.22,2.0,5.8,"09:44:58",1
"21/01/04","10:00",0.0,5.6,75.2,1024.6,128.7,1.6,3.1,121.5,0.24,1.6,6.0,"09:56:56",1
"21/01/04","10:10",0.0,6.1,73.1,1024.6,172.6,1.6,3.2,137.1,0.26,1.7,5.9,"10:02:26",1
"21/01/04","10:20",0.0,6.5,71.3,1024.9,194.5,1.5,2.6,194.1,0.28,1.7,6.1,"10:10:26",1
"21/01/04","10:30",0.0,6.9,69.7,1024.6,190.4,1.1,4.1,125.7,0.30,1.8,6.3,"10:26:20",1
"21/01/04","10:40",0.0,7.2,68.8,1024.6,204.1,1.3,3.3,127.7,0.32,1.9,6.6,"10:30:32",1
"21/01/04","10:50",0.0,7.3,67.3,1024.4,139.1,1.3,3.1,114.2,0.33,1.7,6.5,"10:45:04",1
"21/01/04","11:00",0.0,7.6,66.0,1024.4,164.6,1.5,3.1,114.7,0.35,1.7,7.0,"10:50:40",1
"21/01/04","11:10",0.0,8.1,65.0,1023.9,190.0,1.2,2.9,201.3,0.36,2.0,7.2,"11:04:50",1
"21/01/04","11:20",0.0,8.5,63.4,1024.1,227.6,1.6,3.1,238.7,0.37,2.0,7.4,"11:19:04",1
"21/01/04","11:30",0.0,9.0,61.8,1023.7,208.7,1.1,2.9,221.6,0.39,2.1,7.5,"11:29:44",1
"21/01/04","11:40",0.0,9.4,58.8,1023.2,231.5,2.7,5.2,194.9,0.42,1.8,7.7,"11:31:52",1
"21/01/04","11:50",0.0,9.4,55.9,1023.0,247.8,3.1,6.5,231.6,0.45,1.1,7.8,"11:41:56",1
"21/01/04","12:00",0.0,8.7,56.2,1023.0,258.7,3.1,4.9,325.7,0.21,0.5,7.8,"11:58:02",1
"21/01/04","12:10",0.0,8.3,56.3,1022.5,244.0,2.6,5.6,235.1,0.15,0.2,8.0,"12:06:28",1
"21/01/04","12:20",0.0,8.6,56.8,1022.5,271.1,2.6,4.5,303.1,0.16,0.6,7.9,"12:18:32",1
"21/01/04","12:30",0.0,9.3,56.2,1022.3,284.5,2.0,3.5,267.4,0.23,1.1,8.2,"12:23:36",1
"21/01/04","12:40",0.0,9.9,54.5,1022.0,289.6,3.0,5.6,303.5,0.42,1.2,8.3,"12:39:54",1
"21/01/04","12:50",0.0,9.7,53.5,1021.8,283.6,3.0,4.5,311.3,0.35,0.8,8.3,"12:40:32",1
"21/01/04","13:00",0.0,9.7,52.9,1022.0,285.3,2.0,4.8,264.3,0.20,0.6,8.3,"12:54:56",1
"21/01/04","13:10",0.0,9.3,53.6,1021.8,283.7,3.1,6.2,338.0,0.19,0.4,8.5,"13:07:36",1
"21/01/04","13:20",0.0,9.2,53.3,1022.0,295.3,2.5,4.3,310.9,0.16,0.2,8.5,"13:11:20",1
"21/01/04","13:30",0.0,9.0,54.3,1022.0,282.4,3.0,5.2,242.4,0.14,0.3,8.3,"13:24:26",1
"21/01/04","13:40",0.0,9.6,54.9,1021.8,288.6,3.5,5.1,318.0,0.32,1.0,8.4,"13:37:06",1
"21/01/04","13:50",0.0,10.8,53.4,1021.8,282.4,2.1,4.3,331.2,0.43,1.8,8.8,"13:40:08",1
"21/01/04","14:00",0.0,9.6,52.3,1022.0,293.9,2.7,5.6,338.4,0.15,0.4,8.7,"13:53:44",1
"21/01/04","14:10",0.0,10.0,53.7,1022.0,279.7,2.6,4.4,259.0,0.27,1.1,8.8,"14:03:32",1
"21/01/04","14:20",0.0,10.6,51.4,1021.8,317.7,1.7,4.0,334.0,0.30,1.0,8.9,"14:10:48",1
"21/01/04","14:30",0.0,10.8,50.7,1021.8,338.1,1.5,3.3,356.6,0.31,1.0,9.2,"14:22:32",1
"21/01/04","14:40",0.0,11.2,50.1,1022.3,334.3,1.5,3.1,337.1,0.31,1.2,9.2,"14:37:36",1
"21/01/04","14:50",0.0,10.9,50.9,1022.3,327.6,1.7,4.1,347.3,0.21,1.2,9.3,"14:43:20",1
"21/01/04","15:00",0.0,11.3,48.8,1022.5,303.7,1.6,4.0,339.2,0.25,1.0,9.4,"14:58:00",1
"21/01/04","15:10",0.0,10.7,50.2,1022.5,345.0,2.2,4.3,340.3,0.20,0.8,9.4,"15:01:52",1
"21/01/04","15:20",0.0,10.4,51.3,1023.0,342.6,2.1,4.0,342.3,0.21,0.8,9.6,"15:10:48",1
"21/01/04","15:30",0.0,10.1,52.6,1022.7,332.2,2.5,5.0,326.2,0.13,0.9,9.2,"15:24:48",1
"21/01/04","15:40",0.0,9.9,53.6,1022.5,339.7,2.0,3.5,337.1,0.10,1.0,9.3,"15:34:24",1
"21/01/04","15:50",0.0,9.7,53.3,1022.7,344.1,2.1,4.8,331.5,0.07,0.7,9.1,"15:43:36",1
"21/01/04","16:00",0.0,9.7,54.6,1023.0,332.8,1.8,3.5,336.0,0.07,1.0,9.1,"15:56:48",1
"21/01/04","16:10",0.0,9.2,56.4,1023.4,339.0,2.6,4.3,352.8,0.04,1.0,9.2,"16:09:02",1
"21/01/04","16:20",0.0,8.7,58.2,1022.7,345.3,2.5,4.5,333.7,0.02,1.0,9.0,"16:17:36",1
"21/01/04","16:30",0.0,8.2,60.0,1022.3,345.7,2.3,4.9,343.4,0.00,0.9,8.7,"16:27:44",1
"21/01/04","16:40",0.0,7.8,61.8,1022.7,339.5,2.6,4.3,337.7,0.00,1.0,8.6,"16:31:52",1
"21/01/04","16:50",0.0,7.5,63.4,1022.5,328.0,2.6,3.7,327.8,0.00,1.0,8.7,"16:41:28",1
"21/01/04","17:00",0.0,7.1,64.7,1022.5,297.4,2.6,4.4,336.9,0.00,0.9,8.6,"16:52:08",1
"21/01/04","17:10",0.0,6.8,66.0,1023.2,291.6,2.3,3.1,309.3,0.00,0.9,8.3,"17:09:20",1
"21/01/04","17:20",0.0,6.2,67.6,1023.0,296.8,2.3,3.7,322.4,0.00,0.7,8.4,"17:10:48",1
"21/01/04","17:30",0.0,5.8,69.5,1023.0,301.4,2.7,5.5,326.5,0.00,0.7,8.3,"17:28:16",1
"21/01/04","17:40",0.0,5.5,71.3,1023.0,322.1,4.0,6.4,325.1,0.00,0.8,8.0,"17:36:56",1
"21/01/04","17:50",0.0,5.5,72.2,1022.5,314.0,4.1,6.3,325.5,0.00,0.9,7.9,"17:40:16",1
"21/01/04","18:00",0.0,5.2,72.6,1022.7,282.4,2.1,4.7,314.3,0.00,0.7,7.7,"17:56:32",1
"21/01/04","18:10",0.0,4.8,73.6,1022.7,289.7,2.2,4.5,321.6,0.00,0.5,7.6,"18:09:28",1
"21/01/04","18:20",0.0,4.9,74.2,1022.5,319.4,3.6,5.0,314.8,0.00,0.7,7.5,"18:15:28",1
"21/01/04","18:30",0.0,4.6,74.7,1022.3,300.0,2.8,5.0,322.6,0.00,0.5,7.5,"18:25:36",1
"21/01/04","18:40",0.0,4.3,75.4,1022.3,291.2,2.1,2.9,305.6,0.00,0.4,7.4,"18:31:12",1
"21/01/04","18:50",0.0,4.2,76.6,1022.3,319.0,3.9,7.3,331.2,0.00,0.5,7.3,"18:49:04",1
"21/01/04","19:00",0.0,4.1,77.3,1022.3,308.7,3.9,6.2,324.1,0.00,0.5,7.3,"18:55:20",1
"21/01/04","19:10",0.0,3.9,78.2,1022.0,309.8,3.6,5.9,326.8,0.00,0.5,7.2,"19:08:56",1
"21/01/04","19:20",0.0,3.9,78.4,1022.3,302.2,3.2,4.8,332.3,0.00,0.5,6.9,"19:10:08",1
"21/01/04","19:30",0.0,3.6,78.9,1022.5,292.1,2.0,3.7,311.7,0.00,0.3,6.9,"19:20:56",1
"21/01/04","19:40",0.0,3.4,79.3,1022.3,308.4,1.5,2.9,304.7,0.00,0.2,6.6,"19:31:22",1
"21/01/04","19:50",0.0,2.8,79.8,1022.3,278.0,1.1,2.6,315.7,0.00,-0.3,6.8,"19:49:42",1
"21/01/04","20:00",0.0,2.8,80.6,1021.5,325.0,2.6,4.2,327.1,0.00,-0.2,6.6,"19:57:36",1
"21/01/04","20:10",0.0,2.5,81.1,1021.1,293.1,1.3,2.0,337.5,0.00,-0.4,6.8,"20:01:12",1
"21/01/04","20:20",0.0,2.1,81.8,1021.5,302.2,1.8,2.6,310.5,0.00,-0.6,6.6,"20:11:44",1
"21/01/04","20:30",0.0,1.6,82.6,1021.3,314.0,2.3,3.2,317.7,0.00,-1.0,6.5,"20:25:12",1
"21/01/04","20:40",0.0,1.4,83.7,1021.3,327.5,2.2,2.7,333.9,0.00,-1.0,6.3,"20:31:20",1
"21/01/04","20:50",0.0,1.0,84.4,1021.1,294.9,1.3,1.9,316.7,0.00,-1.3,6.4,"20:40:08",1
"21/01/04","21:00",0.0,1.0,85.2,1020.4,313.7,2.1,2.5,313.5,0.00,-1.2,6.2,"20:53:04",1
"21/01/04","21:10",0.0,0.9,85.9,1020.4,292.5,1.7,2.5,317.5,0.00,-1.1,6.2,"21:03:28",1
"21/01/04","21:20",0.0,1.1,86.6,1020.6,292.1,1.8,2.6,314.2,0.00,-0.8,6.0,"21:18:48",1
"21/01/04","21:30",0.0,1.4,87.2,1020.1,292.8,2.3,3.3,315.3,0.00,-0.5,5.9,"21:28:24",1
"21/01/04","21:40",0.0,1.1,87.6,1020.8,330.8,2.3,3.4,337.8,0.00,-0.7,5.8,"21:31:28",1
"21/01/04","21:50",0.0,0.8,88.0,1020.6,301.5,1.5,2.0,316.2,0.00,-0.9,5.8,"21:47:44",1
"21/01/04","22:00",0.0,0.6,88.6,1020.1,327.6,2.1,2.9,335.2,0.00,-1.0,5.7,"21:53:04",1
"21/01/04","22:10",0.0,0.2,89.0,1020.4,320.9,1.7,2.6,331.2,0.00,-1.4,5.6,"22:02:00",1
"21/01/04","22:20",0.0,0.2,89.4,1020.8,327.2,1.3,2.1,333.3,0.00,-1.3,5.7,"22:14:32",1
"21/01/04","22:30",0.0,-0.1,89.9,1020.6,288.3,0.3,1.0,238.8,0.00,-1.5,5.5,"22:21:52",1
"21/01/04","22:40",0.0,0.1,90.2,1020.6,324.5,1.5,2.4,344.3,0.00,-1.3,5.7,"22:36:56",1
"21/01/04","22:50",0.0,0.2,90.4,1020.4,305.7,1.5,2.5,347.8,0.00,-1.1,5.5,"22:42:24",1
"21/01/04","23:00",0.0,0.2,91.1,1019.7,294.7,1.2,3.5,326.9,0.00,-1.0,5.4,"22:50:02",1
"21/01/04","23:10",0.0,1.1,91.1,1020.1,317.7,3.5,4.7,328.2,0.00,-0.1,5.4,"23:09:50",1
"21/01/04","23:20",0.0,1.3,90.9,1020.6,324.5,2.6,4.2,332.1,0.00,0.0,5.4,"23:10:08",1
"21/01/04","23:30",0.0,0.9,91.1,1020.6,329.0,2.0,3.1,332.9,0.00,-0.3,5.2,"23:27:12",1
"21/01/04","23:40",0.0,0.7,91.3,1020.8,296.8,2.1,3.1,307.6,0.00,-0.5,5.4,"23:37:28",1
"21/01/04","23:50",0.0,0.8,91.4,1020.8,310.6,2.0,3.1,313.5,0.00,-0.4,5.3,"23:45:20",1
"21/01/04","24:00",0.0,0.6,91.5,1020.6,305.2,0.8,2.1,320.1,0.00,-0.6,5.2,"23:59:04",1
